KB1NHL Weather Reports


time (UTC)temp
C
wind
direction
speed
KPH
gust
KPH
rain 1hr
cm
rain 24hr
cm
rain mn
cm
humidity
%
barometer
mb
20260503150901 7 302 29.0 46.7 0.00 0.10 0.00 68 1007.0
20260503150412 7 301 27.4 43.5 0.00 0.10 0.00 68 1006.9
20260503131410 6 307 20.9 35.4 0.00 0.10 0.00 72 1006.8
20260503130901 6 304 14.5 27.4 0.00 0.10 0.00 72 1006.9
20260503130432 6 308 20.9 37.0 0.00 0.10 0.00 72 1006.9
20260503110409 5 292 14.5 22.5 0.00 0.10 0.10 74 1007.8
20260503090414 5 292 12.9 19.3 0.00 0.10 0.10 70 1007.9
20260503081435 6 286 11.3 19.3 0.00 0.10 0.10 66 1008.2
20260503080929 6 308 12.9 19.3 0.00 0.10 0.10 66 1008.2
20260503080359 6 294 12.9 19.3 0.00 0.10 0.10 66 1008.4
20260503072923 6 304 11.3 16.1 0.00 0.10 0.10 64 1008.7
20260503072414 6 304 11.3 14.5 0.00 0.10 0.10 64 1008.9
20260503071910 6 304 9.7 16.1 0.00 0.10 0.10 63 1008.9
20260503071401 6 299 9.7 16.1 0.00 0.10 0.10 62 1009.1
20260503070914 6 308 11.3 16.1 0.00 0.10 0.10 62 1008.9
20260503070405 6 305 11.3 17.7 0.00 0.10 0.10 62 1009.1
20260503054911 7 297 12.9 20.9 0.00 0.10 0.10 60 1010.1
20260503054402 7 292 12.9 20.9 0.00 0.10 0.10 60 1010.2
20260503053935 7 298 14.5 19.3 0.00 0.10 0.10 61 1010.4
20260503053406 7 281 12.9 19.3 0.00 0.10 0.10 62 1010.4
20260503052858 7 284 14.5 19.3 0.00 0.10 0.10 62 1010.3
20260503052410 7 287 11.3 19.3 0.00 0.10 0.10 63 1010.5
20260503051902 7 291 14.5 19.3 0.00 0.10 0.10 63 1010.4
20260503051434 7 304 12.9 19.3 0.00 0.10 0.10 63 1010.3
20260503050909 7 289 12.9 19.3 0.00 0.10 0.10 64 1010.5
20260503050400 7 292 14.5 20.9 0.00 0.10 0.10 64 1010.3
20260503045912 7 285 11.3 20.9 0.00 0.10 0.10 65 1010.5
20260503045424 7 300 12.9 17.7 0.00 0.10 0.10 68 1010.7
20260503044916 7 289 12.9 17.7 0.00 0.10 0.10 70 1010.8
20260503044428 7 273 11.3 20.9 0.00 0.10 0.10 72 1010.9
20260503043939 7 299 11.3 19.3 0.00 0.10 0.10 75 1010.9